RH
66 66 59 46 45 48 48 34 28 28 29 31 32 42 69 100 100 99 95 88 88 89 86 81 76 73 45 53 79 76 70 67 66 66 90 92 86 75 64 56 42 27 31
58 57 62 53 44 41 29 30 28 29 28 23 22 24 27 34 65 93 91 92 94 96 90 90 87 88 86 74 64 73 84 72 64 69 87 90 88 79 65 58 48 28 31
22 24 24 23 22 22 23 23 23 23 24 25 27 27 26 23 22 24 50 78 88 99 99 98 96 98 99 97 65 62 64 84 84 67 80 90 90 83 72 63 60 43 35
17 17 18 19 21 22 22 23 24 26 27 28 29 26 24 23 25 26 27 26 36 70 79 88 75 64 82 98 98 94 73 67 70 88 88 86 85 88 87 81 71 63 44
19 20 21 22 24 28 30 32 33 34 35 37 35 32 29 25 23 24 25 28 33 36 57 63 60 36 29 51 82 86 92 76 78 71 77 83 86 88 90 90 85 80 56
20 20 21 23 25 27 29 33 36 38 40 39 37 33 32 32 30 29 28 30 38 45 42 35 34 33 35 35 43 71 70 97 87 85 81 79 83 85 88 96 93 90 81
25 26 26 27 28 31 32 35 39 40 42 43 41 36 34 36 46 48 45 40 37 43 44 59 58 51 48 54 55 53 60 87 98 87 76 82 84 88 98 91 100 95 94
26 29 31 32 34 37 40 41 44 51 55 65 72 68 62 53 68 77 79 74 64 70 82 84 65 63 73 82 83 66 67 68 86 91 96 92 90 98 100 99 98 87 85
26 26 30 32 34 38 40 42 45 46 54 63 79 82 83 86 71 49 64 73 84 91 94 85 80 84 98 98 81 74 71 66 72 86 92 87 90 91 96 98 97 97 85
29 31 32 33 38 42 44 48 49 50 53 59 60 81 90 96 96 84 69 62 69 79 90 88 83 78 75 73 72 76 78 75 73 69 68 84 87 87 89 87 96 98 96
31 35 38 43 45 45 47 49 51 54 54 56 61 61 59 72 89 98 91 86 75 74 75 76 75 75 79 81 81 85 82 78 80 75 70 67 71 95 97 100 99 91 76
40 44 47 50 52 52 53 53 52 52 52 55 62 72 86 82 81 96 98 96 87 79 87 76 75 73 71 77 81 81 84 82 77 75 76 72 66 70 78 82 88 84 82
38 44 48 53 58 57 55 54 54 57 61 64 62 81 98 96 90 91 95 94 89 90 82 74 75 72 81 77 70 67 75 82 84 84 80 72 72 72 70 74 76 79 79
40 43 49 55 58 59 60 59 60 64 71 74 77 98 100 99 94 93 94 91 92 86 79 96 78 78 83 83 82 78 79 79 80 80 75 67 68 74 77 72 77 80 84
44 48 52 62 64 64 62 61 63 66 69 72 98 100 100 99 99 89 94 91 97 100 98 86 95 83 84 84 81 79 79 78 76 75 83 79 81 81 81 78 79 76 77
50 51 58 64 66 64 62 64 67 70 90 100 98 98 98 98 98 90 93 92 91 98 100 93 87 89 74 73 77 80 79 80 77 75 77 81 81 77 80 84 82 80 75
51 56 62 65 63 62 66 70 72 80 100 97 97 98 99 96 85 88 86 86 90 96 95 91 82 84 83 80 85 87 85 80 77 79 76 74 80 81 78 82 86 88 88
58 64 64 62 61 65 71 74 74 78 96 98 98 98 99 92 84 91 83 88 90 93 99 94 82 82 90 88 83 84 90 93 75 72 71 76 81 95 83 83 92 85 80
66 74 70 70 72 77 86 86 78 73 75 89 88 96 98 100 96 100 100 100 92 86 94 96 99 91 99 92 87 91 91 97 88 97 99 97 100 98 91 92 94 99 100
78 84 82 82 78 82 99 100 98 97 100 100 100 100 100 100 99 99 97 99 100 100 99 98 99 99 100 99 94 94 99 100 99 99 99 99 100 99 98 97 98 95 100
93 92 85 91 98 99 92 94 98 99 99 100 100 100 100 100 100 100 94 91 91 93 96 99 100 100 100 100 98 98 100 99 100 99 98 99 100 100 99 98 99 99 99
96 98 99 98 98 97 93 94 95 90 99 100 100 100 100 100 97 94 95 98 98 100 100 100 98 100 99 100 100 100 98 99 99 99 99 100 99 100 99 100 98 100 100
90 97 98 96 97 92 89 89 88 99 99 100 100 100 96 95 90 95 94 99 99 100 99 100 100 100 100 100 100 100 99 99 99 100 100 98 94 97 100 100 100 100 98
98 98 98 98 98 89 85 98 100 98 100 100 100 91 88 98 96 99 99 100 100 95 91 87 72 74 86 92 93 94 90 90 90 89 95 84 94 91 93 88 70 64 73
98 100 97 98 95 92 96 100 100 100 100 100 97 79 87 93 82 76 80 70 55 49 46 41 40 44 50 48 44 60 62 65 52 64 67 68 80 68 73 82 93 97 98
100 99 98 97 96 89 98 100 99 100 100 98 94 70 50 44 40 42 44 46 48 47 44 45 45 43 40 38 38 39 38 38 38 34 38 36 40 44 45 45 44 46 41
Wind_Speed
7 8 8 8 9 9 10 11 12 13 13 12 12 12 12 12 12 12 14 16 15 14 12 12 12 11 12 13 13 15 16 16 17 17 19 21 17 16 16 16 14 12 9
9 10 10 10 10 11 11 11 11 11 12 11 12 14 14 14 15 15 14 16 17 17 18 17 17 17 16 15 15 15 16 16 16 16 19 22 20 19 18 17 14 13 10
9 9 10 10 12 12 12 13 13 14 14 14 14 14 14 14 15 16 20 21 21 18 19 20 19 20 17 18 18 18 18 17 18 18 21 24 24 22 21 19 17 14 13
8 9 9 10 10 11 12 13 13 14 15 16 17 17 18 18 17 17 16 17 21 23 23 24 25 25 25 24 22 22 21 21 20 21 23 26 26 25 24 22 19 17 16
6 7 8 8 10 10 10 11 11 12 13 14 16 17 18 20 20 20 19 18 18 18 22 25 25 22 20 23 23 25 24 23 23 23 25 26 28 28 27 26 24 20 20
5 7 8 8 9 9 10 10 11 11 12 14 15 16 16 17 18 20 21 20 20 19 19 20 21 20 18 18 20 24 24 23 26 25 26 27 28 30 31 30 28 24 23
4 4 6 7 8 9 10 11 11 11 12 14 17 15 13 12 11 13 14 17 19 20 19 17 18 19 18 16 16 19 22 24 22 24 26 27 28 29 31 32 33 31 23
5 6 7 7 7 8 10 11 11 11 11 11 12 14 7 6 8 3 4 5 7 8 9 10 10 12 12 13 16 16 18 21 24 26 22 23 26 27 30 30 40 32 32
6 6 6 6 7 7 8 9 11 12 12 9 9 7 4 3 13 9 8 5 2 5 7 7 5 6 9 12 13 14 17 18 19 24 25 26 25 24 25 33 27 32 33
6 6 7 8 7 8 8 8 9 10 11 13 10 10 12 14 6 11 9 10 11 11 12 14 14 14 16 18 17 16 14 15 17 19 22 23 24 25 24 27 31 33 47
7 8 8 8 8 9 9 10 11 12 14 14 14 15 14 17 19 18 23 19 17 16 18 19 20 20 18 17 16 16 18 18 19 20 20 21 23 23 24 26 27 31 34
8 10 10 10 10 10 10 11 13 15 16 16 16 15 15 14 13 15 20 23 21 20 17 18 19 18 17 17 17 17 18 20 21 21 21 22 25 25 25 27 29 31 32
6 8 10 10 10 10 11 13 15 17 18 19 19 16 15 16 18 20 20 24 25 24 25 21 19 18 12 11 13 16 17 19 19 20 20 21 22 25 27 27 29 31 32
8 9 11 11 11 12 12 15 16 17 18 20 21 16 16 16 14 13 16 21 24 25 25 18 18 13 12 14 12 12 14 17 19 20 21 23 24 24 26 26 26 28 29
11 13 14 12 13 13 14 17 18 19 21 21 17 15 15 14 9 10 15 17 19 18 19 15 15 15 14 17 18 15 16 17 19 22 23 22 21 22 26 30 29 28 28
13 14 13 12 12 12 15 16 18 20 18 15 13 13 13 13 13 13 15 16 20 21 19 20 20 21 20 22 21 18 17 17 18 18 20 23 25 24 23 26 29 27 26
14 12 11 10 10 13 14 15 16 17 15 14 13 12 12 10 12 14 15 16 17 17 23 25 25 21 21 20 19 18 18 18 20 22 22 21 22 22 22 23 23 22 25
14 13 11 10 12 13 14 15 14 16 13 15 13 12 12 12 13 14 15 16 17 16 17 19 19 18 21 18 17 17 18 19 22 24 24 24 22 20 20 22 20 23 27
14 11 10 11 13 14 14 15 14 15 17 17 15 13 13 12 12 13 14 15 15 16 18 20 20 21 19 16 17 16 16 16 19 19 16 19 22 22 23 19 19 16 13
10 10 11 13 15 14 15 16 14 15 15 13 12 11 11 12 12 13 13 15 15 14 12 16 17 15 14 12 13 14 13 12 13 13 15 18 19 19 18 19 20 18 15
14 12 12 13 15 14 14 15 16 14 15 12 9 10 8 8 8 11 11 11 12 13 13 14 10 9 9 10 10 9 11 13 11 12 12 14 17 18 18 16 15 16 13
13 14 12 13 14 13 13 14 13 12 12 11 8 7 6 5 6 7 6 9 9 7 4 6 7 8 8 6 7 7 8 7 6 8 10 9 11 13 14 13 13 10 8
10 11 13 13 13 13 13 14 13 11 10 9 3 4 6 4 4 4 5 6 6 7 8 6 4 4 4 4 4 5 6 6 6 7 7 7 8 8 8 7 8 7 6
9 11 12 14 13 12 13 13 9 8 10 5 4 3 2 3 4 4 4 4 4 7 10 11 11 11 10 10 9 9 8 9 8 8 8 9 10 9 8 8 9 9 10
8 9 11 13 14 12 11 11 10 10 8 3 1 2 2 3 4 7 8 9 11 14 15 13 13 14 13 12 12 11 8 8 7 8 8 7 8 8 7 7 7 7 7
9 8 10 12 13 13 11 11 10 6 5 5 1 1 6 7 8 10 9 10 10 13 12 11 11 11 11 10 9 9 8 7 7 4 7 7 7 7 5 7 7 7 6
Wind_Direction
230 239 238 238 248 262 265 271 273 274 273 269 269 266 261 254 253 253 250 252 258 260 269 277 281 284 275 271 266 260 256 255 254 251 239 232 248 271 277 283 290 288 255
245 251 252 255 259 262 265 270 270 272 274 275 273 268 265 264 254 252 255 256 257 258 257 259 265 271 270 267 268 265 260 249 250 249 243 240 254 265 270 275 283 279 251
231 241 251 257 263 267 269 271 272 274 274 273 269 266 267 265 263 258 251 250 255 260 263 263 267 268 274 265 259 260 263 259 251 248 248 250 257 262 266 269 276 276 251
243 249 253 256 260 264 268 271 271 272 272 273 273 270 267 264 262 262 261 257 255 254 257 262 265 270 267 269 271 261 257 259 257 253 253 254 259 262 263 265 267 271 253
260 266 268 270 273 279 278 275 274 273 275 280 281 281 278 274 268 262 260 258 260 255 255 259 262 266 268 260 258 264 258 254 259 255 257 258 260 262 262 264 264 266 259
274 283 284 282 278 274 276 278 281 284 290 290 289 287 287 283 277 270 263 257 255 257 259 264 266 265 264 269 264 261 260 262 257 260 258 259 260 261 262 261 261 261 256
295 282 285 287 290 291 291 291 293 294 295 297 302 299 302 286 271 265 271 264 256 258 264 268 277 273 267 266 266 269 263 257 258 262 261 262 262 262 259 262 260 259 262
317 321 315 309 302 298 297 299 299 298 302 305 311 323 325 302 239 243 269 301 266 246 254 267 289 272 270 268 274 281 280 271 263 261 263 263 265 261 262 261 256 257 267
313 317 320 320 318 312 305 302 302 305 301 293 297 304 306 290 302 272 239 279 268 238 250 258 310 313 276 274 281 291 283 280 273 265 267 265 267 269 262 258 247 239 261
308 314 318 318 314 313 316 313 311 307 304 300 288 266 268 278 302 303 271 269 283 283 277 276 286 289 279 276 281 281 287 289 288 281 272 267 269 269 271 265 260 265 256
308 311 311 310 307 306 306 305 309 310 308 302 295 289 279 257 258 276 291 298 294 288 291 288 289 286 283 279 271 270 279 285 284 286 289 286 278 279 279 272 274 272 269
303 299 298 295 294 297 300 306 309 308 305 301 293 290 287 288 277 277 282 285 295 297 301 301 301 297 282 277 273 271 274 278 282 284 285 292 286 283 282 274 273 272 270
295 298 297 291 288 291 295 303 306 306 304 303 298 289 291 282 274 270 272 281 285 287 290 294 309 307 296 295 280 275 277 281 283 285 288 293 297 290 288 284 279 274 274
309 308 304 295 293 296 301 307 307 304 298 295 292 285 288 294 293 283 271 278 282 281 287 296 299 302 297 300 303 297 288 284 281 283 284 285 288 293 292 288 288 285 284
315 313 306 297 297 302 306 310 308 305 299 295 285 281 284 294 288 279 270 272 276 283 296 290 299 300 303 304 306 298 301 301 302 294 293 295 298 295 297 291 289 287 284
316 312 301 297 303 306 309 310 310 309 302 305 291 281 282 287 287 269 271 279 274 268 278 282 284 291 293 294 294 290 293 301 314 312 307 299 292 295 299 294 291 297 289
321 313 302 302 307 310 309 311 316 315 312 307 299 280 277 284 294 280 270 272 275 271 270 283 287 295 297 295 296 289 292 297 299 305 303 306 307 307 298 298 282 285 286
320 316 309 307 310 309 304 305 311 317 311 305 300 289 292 292 289 285 273 272 265 270 274 281 288 289 291 302 302 298 292 291 298 299 303 301 303 304 313 302 302 284 281
316 314 313 312 314 313 309 305 314 315 307 302 297 289 291 290 294 288 281 280 280 276 274 272 285 281 289 293 305 306 304 293 310 302 303 307 300 296 305 311 307 295 274
316 311 310 309 314 317 318 315 320 311 306 299 295 291 286 284 290 286 283 280 281 279 274 281 282 280 288 295 306 304 297 305 302 309 314 301 293 296 302 303 302 284 277
330 311 309 316 323 320 312 322 314 309 313 301 293 297 290 295 297 295 300 299 296 278 270 281 277 277 281 294 299 289 303 311 294 310 311 295 289 293 300 304 306 296 294
333 327 323 324 329 325 317 307 311 304 307 305 293 302 301 299 303 309 327 343 341 340 318 278 279 281 297 300 297 306 321 319 317 305 310 315 306 299 302 308 308 309 289
316 312 315 323 323 320 315 315 296 289 304 300 305 318 324 316 334 21 4 10 10 29 46 45 49 51 25 2 341 336 340 340 336 327 333 338 339 338 330 312 306 308 301
303 307 309 321 319 315 315 316 304 288 289 278 288 326 320 23 41 53 37 22 45 76 71 65 65 67 62 59 57 53 51 52 45 36 29 35 27 24 25 24 25 24 25
314 314 317 315 322 332 317 305 306 289 272 245 328 337 29 60 69 69 64 70 73 68 61 57 55 55 54 55 52 50 51 43 43 39 33 37 32 24 19 9 4 358 348
324 325 315 311 315 328 331 314 309 279 242 131 70 81 100 97 93 88 80 75 72 69 64 58 57 57 54 50 48 42 38 26 21 5 16 14 1 360 357 12 1 345 335